Location: Venise Bay
(45.0825°N, 73.1481°W)
Time: 17:18:56
(UTC-05:00)

ISS - Pass Details

Date: 01 December 2021
Orbit: 413 x 422 km, 51.6° (Epoch: 24 January)

Event Time Altitude Azimuth Distance (km) Brightness Sun altitude
Rises 17:12:36 0° 294° (WNW) 2,385 0.8 -10.4°
Reaches altitude 10° 17:14:55 10° 306° (NW) 1,517 -0.5 -10.8°
Maximum altitude 17:17:54 27° 7° (N) 844 -2.5 -11.3°
Enters shadow 17:19:39 18° 53° (NE) 1,120 -2.2 -11.6°
